GW0403 Weather Reports


Display with metric or nautical units.
time (UTC)temp
F
wind
direction
speed
MPH
gust
MPH
rain 1hr
in
rain 24hr
in
rain mn
in
humidity
%
barometer
mb
20260503214543 87 270 1.0 7.0 0.00 0.00 0.00 37 1009.7
20260503213043 87 326 2.0 6.0 0.00 0.00 0.00 38 1009.9
20260503211610 86 300 1.0 7.0 0.00 0.00 0.00 41 1009.9
20260503210047 86 322 1.0 4.0 0.00 0.00 0.00 44 1010.2
20260503204544 85 349 1.0 3.0 0.00 0.00 0.00 44 1010.3
20260503203052 84 276 1.0 4.0 0.00 0.00 0.00 50 1010.4
20260503201547 83 320 1.0 5.0 0.00 0.00 0.00 46 1010.6
20260503200054 83 265 1.0 4.0 0.00 0.00 0.00 51 1010.9
20260503194558 82 296 1.0 5.0 0.00 0.00 0.00 55 1011.1
20260503193055 81 319 2.0 6.0 0.00 0.00 0.00 55 1011.1
20260503191548 80 311 0.0 4.0 0.00 0.00 0.00 58 1011.4
20260503190051 79 314 1.0 3.0 0.00 0.00 0.00 60 1011.6
20260503184559 79 261 0.0 2.0 0.00 0.00 0.00 56 1011.8
20260503183047 77 264 1.0 4.0 0.00 0.00 0.00 63 1011.9
20260503181608 76 0 0.0 2.0 0.00 0.00 0.00 63 1012.0
20260503180103 74 321 1.0 2.0 0.00 0.00 0.00 66 1012.2
20260503174554 74 0 0.0 2.0 0.00 0.00 0.00 66 1012.2
20260503173058 72 278 0.0 2.0 0.00 0.00 0.00 70 1012.4
20260503171543 70 0 0.0 1.0 0.00 0.00 0.00 75 1012.6
20260503081546 56 0 0.0 0.0 0.00 0.01 0.00 94 1013.2
20260503071550 57 0 0.0 0.0 0.00 0.01 0.00 91 1013.2
20260503054542 60 0 1.0 2.0 0.00 0.01 0.01 88 1013.4
20260503053045 60 0 0.0 0.0 0.00 0.01 0.01 86 1013.5
20260503051545 60 0 0.0 0.0 0.00 0.01 0.01 85 1013.6
20260503050043 61 0 0.0 0.0 0.00 0.01 0.01 84 1013.5
20260503044548 61 0 0.0 0.0 0.00 0.01 0.01 83 1013.5
20260503043042 62 0 0.0 0.0 0.00 0.01 0.01 82 1013.5
20260503041546 63 0 0.0 1.0 0.00 0.01 0.01 81 1013.5
20260503040100 63 0 0.0 1.0 0.00 0.01 0.01 79 1013.5
20260503034541 65 285 0.0 2.0 0.00 0.01 0.01 77 1013.3
20260503033046 66 266 1.0 5.0 0.00 0.01 0.01 75 1013.1
20260503031542 67 311 2.0 5.0 0.00 0.01 0.01 72 1013.0
20260503030111 68 0 0.0 0.0 0.00 0.01 0.01 71 1012.7
20260503024545 71 14 1.0 5.0 0.00 0.01 0.01 68 1012.5
20260503023042 74 0 0.0 2.0 0.00 0.01 0.01 63 1012.0
20260503021543 77 0 0.0 1.0 0.00 0.01 0.01 58 1011.8
20260503020046 77 0 0.0 2.0 0.00 0.01 0.01 62 1011.7
20260503014600 78 172 0.0 0.0 0.00 0.01 0.01 58 1011.5
20260503013050 78 0 0.0 0.0 0.00 0.01 0.01 59 1011.6
20260503011551 78 0 0.0 1.0 0.00 0.01 0.01 57 1011.7
20260503010040 77 0 0.0 2.0 0.00 0.01 0.01 58 1011.7
20260503004542 75 208 1.0 2.0 0.00 0.01 0.01 59 1011.8
20260503003056 75 316 0.0 1.0 0.00 0.01 0.01 61 1011.8
20260503001559 74 18 1.0 3.0 0.00 0.01 0.01 64 1011.7
20260503000059 74 32 0.0 1.0 0.00 0.01 0.01 60 1011.9
20260502234542 73 0 0.0 4.0 0.00 0.01 0.01 65 1012.1
20260502233046 73 335 0.0 3.0 0.00 0.01 0.01 65 1012.3
20260502231542 73 272 1.0 5.0 0.00 0.01 0.01 66 1012.4
20260502230050 72 318 1.0 5.0 0.00 0.01 0.01 67 1012.5
20260502224549 71 0 0.0 4.0 0.00 0.01 0.01 69 1012.8
20260502223045 70 162 2.0 3.0 0.00 0.01 0.01 68 1013.1
20260502221542 69 320 1.0 6.0 0.00 0.01 0.01 69 1013.3
20260502220046 69 304 2.0 4.0 0.00 0.01 0.01 71 1013.5